Regional Weather Roundup
Issued by NWS Cleveland, OH

Home | Current Version | Previous Version | Graphics & Text | Print | Product List | Glossary On
Versions: 1 2 3 4 5 6 7 8 9 10 11 12 13 14 15 16 17 18 19 20 21 22 23 24 25 26 27 28 29 30 31 32 33 34 35 36 37 38 39 40 41 42 43 44 45 46 47 48 49 50
000
ASUS41 KCLE 230710
RWRCLE
OHIO REGIONAL WEATHER ROUNDUP
NATIONAL WEATHER SERVICE CLEVELAND, OH
300 AM EDT THU OCT 23 2014

NOTE: "FAIR" INDICATES FEW OR NO CLOUDS BELOW 12,000 FEET WITH NO
SIGNIFICANT WEATHER AND/OR OBSTRUCTIONS TO VISIBILITY.

OHZ001>008-015>018-024>027-034-035-043-044-230800-
   NORTHWEST OHIO

CITY           SKY/WX    TMP DP  RH WIND       PRES   REMARKS
DEFIANCE       CLEAR     34  32  92 CALM      30.28S FOG
FINDLAY        CLOUDY    44  39  82 N3        30.25F
TOLEDO EXPRESS CLEAR     38  36  92 CALM      30.27F
TOLEDO EXEC    CLEAR     40  36  86 CALM      30.27F
LIMA           CLOUDY    42  38  85 W5        30.26F
$$

OHZ009>014-019>023-028>033-038-089-230800-
   NORTHEAST OHIO

CITY           SKY/WX    TMP DP  RH WIND       PRES   REMARKS
CLE-HOPKINS    MOCLDY    48  44  86 NW5       30.23S
CLE-LAKEFRONT  CLEAR     53  46  77 N10       30.19F
CUY CO. ARPT   NOT AVBL
LORAIN-ELYRIA  CLEAR     44  42  93 NW6       30.23S
ASHTABULA      PTCLDY    43  41  93 NW3       30.18S
AKRON-CANTON   MOCLDY    48  43  82 NW8       30.18S
WOOSTER        CLEAR     46  43  89 NW8       30.20F
MANSFIELD      CLOUDY    43  42  97 NW7       30.22F
YOUNGSTOWN     PTCLDY    44  42  93 NW8       30.15F
$$

OHZ042-051>053-060>062-070>072-077>081-230800-
  SOUTHWEST OHIO

CITY           SKY/WX    TMP DP  RH WIND       PRES   REMARKS
CINC-COVINGTON CLOUDY    46  39  76 W3        30.26R
CINC-LUNKEN    CLOUDY    45  42  89 CALM      30.28R
HAMILTON       CLOUDY    45  41  86 N5        30.28R
DAYTON         CLOUDY    42  39  89 N3        30.26F
WRIGHT-PAT AFB CLOUDY    45  41  84 CALM      30.25S
DAYTON GENERAL CLOUDY    43  39  86 NW5       30.25S
WILMINGTON     CLOUDY    47  39  74 NW5       30.24S
$$

OHZ036-037-039>041-045>050-054>059-063>069-073>076-082>088-230800-
  CENTRAL AND SOUTHEAST OHIO

CITY           SKY/WX    TMP DP  RH WIND       PRES   REMARKS
COLUMBUS       CLEAR     45  39  79 N7        30.23S
OSU AIRPORT    CLEAR     44  39  82 NW9       30.24S
BOLTON FIELD   PTCLDY    43  40  88 NW6       30.24S
RICKENBACK AFB CLEAR     44  40  86 NW7       30.23S
NEWARK         PTCLDY    42  39  89 NW5       30.21F
MARION         CLEAR     41  39  93 NW3       30.25S
LANCASTER      PTCLDY    44  40  85 NW5       30.22S
ZANESVILLE     CLEAR     40  37  89 W6        30.20S
NEW PHILLY     CLOUDY    47  43  86 NW6       30.20R
$$



USA.gov is the U.S. government's official web portal to all federal, state and local government web resources and services.